Location: Friaudour
(46.0460°N, 1.2873°E)
Time: 15:44:30
(UTC+00:00)

Spot 4 Rocket - Pass Details

Date: 29 October 2020
Orbit: 776 x 781 km, 98.7° (Epoch: 29 November)

Event Time Altitude Azimuth Distance (km) Brightness Sun altitude
Rises 04:09:35 0° 6° (N) 3,270 7.4 -25.1°
Reaches altitude 10° 04:12:05 10° 357° (N) 2,338 6.5 -24.7°
Enters shadow 04:14:19 23° 340° (NNW) 1,630 5.5 -24.3°
